Regional Weather Roundup
Issued by NWS Little Rock, AR

Home | Current Version | Previous Version | Graphics & Text | Print | Product List | Glossary On
Versions: 1 2 3 4 5 6 7 8 9 10 11 12 13 14 15 16 17 18 19 20 21 22 23 24 25 26 27 28 29 30 31 32 33 34 35 36 37 38 39 40 41 42 43 44 45 46 47 48 49 50
000
ASUS44 KLZK 281405
RWRLZK

WEATHER ROUNDUP FOR ARKANSAS
NATIONAL WEATHER SERVICE LITTLE ROCK AR
800 AM CST SAT FEB 28 2015

NOTE: "FAIR" INDICATES FEW OR NO CLOUDS BELOW 12,000 FEET WITH NO
SIGNIFICANT WEATHER AND/OR OBSTRUCTIONS TO VISIBILITY.

ARZ001-003-010-029-281500-
NORTHWEST ARKANSAS

CITY           SKY/WX    TMP DP  RH WIND       PRES   REMARKS
FAYETTEVILLE   CLOUDY    20  17  88 E6        30.44F FOG     WCI  12
FORT SMITH     CLOUDY    23  19  85 E10       30.50S WCI  12
HARRISON       LGT SNOW  18  15  88 SE9       30.48F FOG     WCI   7
BENTONVILLE    CLOUDY    19  14  79 E12       30.44S WCI   7
ROGERS         FLURRIES  20  17  88 E10       30.44F WCI   9
SILOAM SPGS    PTSUNNY   19  12  73 E8        30.44S WCI   9
HIGHFILL       LGT SNOW  20  16  84 E7        30.43S FOG     WCI  11
SPRINGDALE     LGT SNOW  19  16  86 E10       30.45F FOG     WCI   8
$$

ARZ004-005-016-281500-
NORTH CENTRAL ARKANSAS

CITY           SKY/WX    TMP DP  RH WIND       PRES   REMARKS
BATESVILLE     CLOUDY    21  18  86 NE6       30.57S WCI  14
FLIPPIN        PTSUNNY   19  14  79 E3        30.54S
MTN HOME       LGT SNOW  19  16  88 E8        30.52S FOG     WCI   9
$$

ARZ040-041-281500-
WEST CENTRAL ARKANSAS

CITY           SKY/WX    TMP DP  RH WIND       PRES   REMARKS
MENA           CLOUDY    27  21  80 NE8       30.44S WCI  18
MOUNT IDA      CLOUDY    25  19  78 CALM      30.46R
$$

ARZ009-017-025-026-028-281500-
NORTHEAST ARKANSAS

CITY           SKY/WX    TMP DP  RH WIND       PRES   REMARKS
CORNING        LGT SNOW  23  18  80 NE13      30.62S WCI  11
JONESBORO      CLOUDY    23  19  85 NE14      30.59R WCI  11
NEWPORT        FLURRIES  25  19  77 NE14      30.59F WCI  13
WALNUT RIDGE   MOSUNNY   21  16  79 NE15      30.60S WCI   8
BLYTHEVILLE    CLOUDY    26  16  65 NE14      30.60S WCI  14
$$

ARZ022-023-033-042-044-281500-
CENTRAL ARKANSAS

CITY           SKY/WX    TMP DP  RH WIND       PRES   REMARKS
LITTLE ROCK    CLOUDY    28  17  63 NE10      30.55S WCI  19
N LITTLE ROCK  CLOUDY    26  21  83 NE12      30.55S WCI  15
SEARCY         CLOUDY    26  19  74 NE12      30.57S WCI  16
HOT SPRINGS    CLOUDY    26  17  68 NE8       30.51R WCI  18
RUSSELLVILLE   CLOUDY    24  18  77 E5        30.53S WCI  18
CLINTON        FLURRIES  23  18  80 N5        30.57S WCI  17
$$

ARZ036-281500-
EAST ARKANSAS

CITY           SKY/WX    TMP DP  RH WIND       PRES   REMARKS
WEST MEMPHIS   CLOUDY    29  16  58 NE12      30.55S WCI  19
$$

ARZ050-053-066-070-073-281500-
SOUTHWEST ARKANSAS

CITY           SKY/WX    TMP DP  RH WIND       PRES   REMARKS
ARKADELPHIA    PTSUNNY   28  20  72 NE6       30.53R WCI  22
CAMDEN         MOSUNNY   30  19  64 MISG      30.51S
TEXARKANA      CLOUDY    28  21  75 E8        30.46S WCI  20
EL DORADO      MOSUNNY   29  21  72 NE9       30.48S WCI  20
DE QUEEN       CLOUDY    27  19  72 E12       30.46R WCI  17
$$

ARZ056-057-069-281500-
SOUTHEAST ARKANSAS

CITY           SKY/WX    TMP DP  RH WIND       PRES   REMARKS
PINE BLUFF     CLOUDY    28  20  71 NE10      30.53R WCI  19
STUTTGART      CLOUDY    28  19  69 NE12      30.54R WCI  18
MONTICELLO     CLOUDY    30  21  69 NE10      30.50R WCI  21

$$





USA.gov is the U.S. government's official web portal to all federal, state and local government web resources and services.